User: anonymous
Location: Goheenville
(40.9070°N, 79.3720°W)
Time: 17:35:47
(UTC-04:00)
Language:

Cosmos 1633 - Orbit

View from above orbital plane
View from above orbital plane
View from above satellite
View from above satellite

Ground track
Ground track

The orbit data is extracted from the following two-line orbital elements,

1 15592U 85020A   14234.32524590  .00003058  00000-0  14370-3 0  5249
2 15592 082.5389 265.8959 0017541 195.2711 291.2901 15.19102315607327
Epoch (UTC): 22 August 2014 07:48:21
Eccentricity: 0.0017541
inclination: 82.5389°
perigee height: 496 km
apogee height: 520 km
right ascension of ascending node: 265.8959°
argument of perigee: 195.2711°
revolutions per day: 15.19102315
mean anomaly at epoch: 291.2901°
orbit number at epoch: 60732

The dashed part of the orbit path shows where the satellite is in the earth's shadow,  

DLR